Time,TemperatureF,DewpointF,PressureIn,WindDirection,WindDirectionDegrees,WindSpeedMPH,WindSpeedGustMPH,Humidity,HourlyPrecipIn,Conditions,Clouds,dailyrainin,SoftwareType,DateUTC
2013-02-21 00:03:00,20.0,15.0,30.21,NW,316,4.0,10.0,81,0.00,,,0.00,,2013-02-21 05:03:00,
2013-02-21 00:12:00,20.0,15.0,30.21,NW,316,4.0,10.0,81,0.00,,,0.00,,2013-02-21 05:12:00,
2013-02-21 00:22:00,20.0,15.0,30.21,WNW,285,1.0,7.0,82,0.00,,,0.00,,2013-02-21 05:22:00,
2013-02-21 00:36:00,20.0,15.0,30.21,NW,312,2.0,7.0,82,0.00,,,0.00,,2013-02-21 05:36:00,
2013-02-21 00:46:00,20.0,15.0,30.21,NW,312,2.0,7.0,82,0.00,,,0.00,,2013-02-21 05:46:00,
2013-02-21 00:54:00,20.0,15.0,30.21,WNW,293,3.0,9.0,81,0.00,,,0.00,,2013-02-21 05:54:00,
2013-02-21 01:01:00,20.0,15.0,30.21,NW,326,3.0,7.0,80,0.00,,,0.00,,2013-02-21 06:01:00,
2013-02-21 01:11:00,20.0,15.0,30.21,NW,326,3.0,7.0,80,0.00,,,0.00,,2013-02-21 06:11:00,
2013-02-21 01:21:00,20.0,15.0,30.22,WNW,290,1.0,7.0,80,0.00,,,0.00,,2013-02-21 06:21:00,
2013-02-21 01:31:00,20.0,15.0,30.23,NNW,330,2.0,7.0,81,0.00,,,0.00,,2013-02-21 06:31:00,
2013-02-21 01:41:00,20.0,15.0,30.23,NNW,330,2.0,7.0,81,0.00,,,0.00,,2013-02-21 06:41:00,
2013-02-21 01:51:00,20.0,15.0,30.23,NW,312,2.0,6.0,82,0.00,,,0.00,,2013-02-21 06:51:00,
2013-02-21 02:01:00,20.0,16.0,30.22,NW,315,1.0,5.0,84,0.00,,,0.00,,2013-02-21 07:01:00,
2013-02-21 02:11:00,20.0,16.0,30.23,NW,316,2.0,4.0,85,0.00,,,0.00,,2013-02-21 07:11:00,
2013-02-21 02:21:00,20.0,16.0,30.23,NW,316,2.0,4.0,85,0.00,,,0.00,,2013-02-21 07:21:00,
2013-02-21 02:32:00,20.0,16.0,30.24,West,276,2.0,4.0,85,0.00,,,0.00,,2013-02-21 07:32:00,
2013-02-21 02:42:00,20.0,17.0,30.24,WNW,295,1.0,4.0,87,0.00,,,0.00,,2013-02-21 07:42:00,
2013-02-21 02:52:00,20.0,17.0,30.24,WNW,295,1.0,4.0,87,0.00,,,0.00,,2013-02-21 07:52:00,
2013-02-21 03:02:00,20.0,17.0,30.24,NW,311,0.0,2.0,87,0.00,,,0.00,,2013-02-21 08:02:00,
2013-02-21 03:11:00,20.0,17.0,30.24,NW,311,0.0,2.0,87,0.00,,,0.00,,2013-02-21 08:11:00,
2013-02-21 03:21:00,20.0,17.0,30.24,WNW,293,1.0,3.0,87,0.00,,,0.00,,2013-02-21 08:21:00,
2013-02-21 03:32:00,19.0,16.0,30.24,West,275,0.0,3.0,88,0.00,,,0.00,,2013-02-21 08:32:00,
2013-02-21 03:42:00,19.0,16.0,30.24,West,275,0.0,3.0,88,0.00,,,0.00,,2013-02-21 08:42:00,
2013-02-21 03:52:00,19.0,16.0,30.24,WNW,290,0.0,3.0,88,0.00,,,0.00,,2013-02-21 08:52:00,
2013-02-21 04:02:00,19.0,16.0,30.24,NW,315,2.0,4.0,88,0.00,,,0.00,,2013-02-21 09:02:00,
2013-02-21 04:11:00,19.0,16.0,30.24,NW,315,2.0,4.0,88,0.00,,,0.00,,2013-02-21 09:11:00,
2013-02-21 04:22:00,20.0,17.0,30.23,NW,307,1.0,5.0,88,0.00,,,0.00,,2013-02-21 09:22:00,
2013-02-21 04:32:00,20.0,17.0,30.23,NNW,328,2.0,4.0,87,0.00,,,0.00,,2013-02-21 09:32:00,
2013-02-21 04:42:00,20.0,17.0,30.23,NNW,328,2.0,4.0,87,0.00,,,0.00,,2013-02-21 09:42:00,
2013-02-21 04:51:00,19.0,16.0,30.24,WNW,294,1.0,5.0,87,0.00,,,0.00,,2013-02-21 09:51:00,
2013-02-21 05:01:00,19.0,16.0,30.24,West,280,1.0,4.0,86,0.00,,,0.00,,2013-02-21 10:01:00,
2013-02-21 05:11:00,19.0,16.0,30.24,West,280,1.0,4.0,86,0.00,,,0.00,,2013-02-21 10:11:00,
2013-02-21 05:21:00,19.0,16.0,30.24,WNW,300,0.0,2.0,87,0.00,,,0.00,,2013-02-21 10:21:00,
2013-02-21 05:31:00,19.0,16.0,30.25,NNW,340,1.0,3.0,87,0.00,,,0.00,,2013-02-21 10:31:00,
2013-02-21 05:41:00,19.0,16.0,30.25,NNW,340,1.0,3.0,87,0.00,,,0.00,,2013-02-21 10:41:00,
2013-02-21 05:51:00,19.0,16.0,30.26,WNW,302,1.0,4.0,86,0.00,,,0.00,,2013-02-21 10:51:00,
2013-02-21 06:01:00,20.0,16.0,30.26,WNW,290,2.0,4.0,86,0.00,,,0.00,,2013-02-21 11:01:00,
2013-02-21 06:11:00,20.0,16.0,30.26,WNW,290,2.0,4.0,86,0.00,,,0.00,,2013-02-21 11:11:00,
2013-02-21 06:21:00,20.0,16.0,30.26,WNW,294,0.0,3.0,86,0.00,,,0.00,,2013-02-21 11:21:00,
2013-02-21 06:31:00,20.0,16.0,30.27,NW,319,1.0,2.0,85,0.00,,,0.00,,2013-02-21 11:31:00,
2013-02-21 06:41:00,20.0,16.0,30.27,NW,319,1.0,2.0,85,0.00,,,0.00,,2013-02-21 11:41:00,
2013-02-21 06:51:00,20.0,16.0,30.27,WNW,295,1.0,3.0,85,0.00,,,0.00,,2013-02-21 11:51:00,
2013-02-21 07:01:00,20.0,16.0,30.27,WNW,292,1.0,3.0,84,0.00,,,0.00,,2013-02-21 12:01:00,
2013-02-21 07:11:00,20.0,16.0,30.27,WNW,292,1.0,3.0,84,0.00,,,0.00,,2013-02-21 12:11:00,
2013-02-21 07:22:00,20.0,16.0,30.28,NW,316,3.0,5.0,83,0.00,,,0.00,,2013-02-21 12:22:00,
2013-02-21 07:32:00,20.0,16.0,30.28,NW,319,2.0,6.0,83,0.00,,,0.00,,2013-02-21 12:32:00,
2013-02-21 07:43:00,20.0,16.0,30.28,NW,319,2.0,6.0,83,0.00,,,0.00,,2013-02-21 12:43:00,
2013-02-21 07:52:00,20.0,15.0,30.29,WNW,301,2.0,5.0,82,0.00,,,0.00,,2013-02-21 12:52:00,
2013-02-21 08:02:00,20.0,15.0,30.31,NNW,338,2.0,6.0,82,0.00,,,0.00,,2013-02-21 13:02:00,
2013-02-21 08:12:00,20.0,15.0,30.31,NNW,338,2.0,6.0,82,0.00,,,0.00,,2013-02-21 13:12:00,
2013-02-21 08:22:00,20.0,16.0,30.32,WNW,288,1.0,4.0,83,0.00,,,0.00,,2013-02-21 13:22:00,
2013-02-21 08:32:00,20.0,15.0,30.31,NNW,328,1.0,5.0,82,0.00,,,0.00,,2013-02-21 13:32:00,
2013-02-21 08:42:00,20.0,15.0,30.31,NNW,328,1.0,5.0,82,0.00,,,0.00,,2013-02-21 13:42:00,
2013-02-21 08:51:00,20.0,16.0,30.32,East,86,1.0,4.0,83,0.00,,,0.00,,2013-02-21 13:51:00,
2013-02-21 09:02:00,20.0,16.0,30.30,North,10,1.0,5.0,83,0.00,,,0.00,,2013-02-21 14:02:00,
2013-02-21 09:11:00,20.0,16.0,30.30,North,10,1.0,5.0,83,0.00,,,0.00,,2013-02-21 14:11:00,
2013-02-21 09:22:00,20.0,16.0,30.31,NNE,32,1.0,5.0,83,0.00,,,0.00,,2013-02-21 14:22:00,
2013-02-21 09:32:00,20.0,15.0,30.32,East,92,1.0,3.0,82,0.00,,,0.00,,2013-02-21 14:32:00,
2013-02-21 09:42:00,20.0,15.0,30.32,East,92,1.0,3.0,82,0.00,,,0.00,,2013-02-21 14:42:00,
2013-02-21 09:52:00,20.0,15.0,30.31,East,82,1.0,5.0,82,0.00,,,0.00,,2013-02-21 14:52:00,
2013-02-21 10:02:00,20.0,15.0,30.32,East,99,1.0,5.0,82,0.00,,,0.00,,2013-02-21 15:02:00,
2013-02-21 10:12:00,20.0,15.0,30.32,East,99,1.0,5.0,82,0.00,,,0.00,,2013-02-21 15:12:00,
2013-02-21 10:21:00,20.0,15.0,30.32,NNE,27,1.0,4.0,81,0.00,,,0.00,,2013-02-21 15:21:00,
2013-02-21 10:32:00,20.0,15.0,30.33,WNW,290,1.0,4.0,81,0.00,,,0.00,,2013-02-21 15:32:00,
2013-02-21 10:42:00,20.0,15.0,30.33,WNW,290,1.0,4.0,81,0.00,,,0.00,,2013-02-21 15:42:00,
2013-02-21 10:52:00,20.0,15.0,30.33,NNE,25,1.0,8.0,80,0.00,,,0.00,,2013-02-21 15:52:00,
2013-02-21 11:02:00,20.0,15.0,30.33,NNE,25,1.0,8.0,80,0.00,,,0.00,,2013-02-21 16:02:00,
2013-02-21 11:12:00,20.0,15.0,30.35,SE,128,1.0,-999.0,80,-99.99,,,-99.99,,2013-02-21 16:12:00,
2013-02-21 11:22:00,20.0,15.0,30.35,SE,128,1.0,-999.0,80,-99.99,,,-99.99,,2013-02-21 16:22:00,
2013-02-21 11:32:00,20.0,14.0,30.35,North,11,1.0,4.0,78,0.00,,,0.00,,2013-02-21 16:32:00,
2013-02-21 11:42:00,20.0,14.0,30.34,WNW,303,1.0,5.0,78,0.00,,,0.00,,2013-02-21 16:42:00,
2013-02-21 11:52:00,20.0,14.0,30.34,WNW,303,1.0,5.0,78,0.00,,,0.00,,2013-02-21 16:52:00,
2013-02-21 12:02:00,20.0,14.0,30.34,NNW,329,2.0,4.0,78,0.00,,,0.00,,2013-02-21 17:02:00,
2013-02-21 12:11:00,20.0,14.0,30.34,NNW,329,2.0,4.0,78,0.00,,,0.00,,2013-02-21 17:11:00,
2013-02-21 12:21:00,20.0,14.0,30.34,SSE,152,1.0,5.0,77,0.00,,,0.00,,2013-02-21 17:21:00,
2013-02-21 12:32:00,20.0,14.0,30.33,NNE,30,0.0,4.0,78,0.00,,,0.00,,2013-02-21 17:32:00,
2013-02-21 12:42:00,20.0,14.0,30.33,NNE,30,0.0,4.0,78,0.00,,,0.00,,2013-02-21 17:42:00,
2013-02-21 12:52:00,21.0,15.0,30.33,WNW,293,1.0,4.0,78,0.00,,,0.00,,2013-02-21 17:52:00,
2013-02-21 13:02:00,21.0,14.0,30.32,NNW,341,1.0,3.0,75,0.00,,,0.00,,2013-02-21 18:02:00,
2013-02-21 13:12:00,21.0,14.0,30.32,NNW,341,1.0,3.0,75,0.00,,,0.00,,2013-02-21 18:12:00,
2013-02-21 13:22:00,21.0,14.0,30.32,SW,228,0.0,4.0,75,0.00,,,0.00,,2013-02-21 18:22:00,
2013-02-21 13:32:00,22.0,15.0,30.33,North,357,2.0,5.0,74,0.00,,,0.00,,2013-02-21 18:32:00,
2013-02-21 13:42:00,22.0,15.0,30.33,North,357,2.0,5.0,74,0.00,,,0.00,,2013-02-21 18:42:00,
2013-02-21 13:51:00,21.0,14.0,30.34,SW,225,0.0,3.0,74,0.00,,,0.00,,2013-02-21 18:51:00,
2013-02-21 14:01:00,23.0,15.0,30.35,East,87,0.0,2.0,72,0.00,,,0.00,,2013-02-21 19:01:00,
2013-02-21 14:12:00,23.0,15.0,30.35,East,87,0.0,2.0,72,0.00,,,0.00,,2013-02-21 19:12:00,
2013-02-21 14:21:00,23.0,15.0,30.33,SW,225,0.0,2.0,72,0.00,,,0.00,,2013-02-21 19:21:00,
2013-02-21 14:32:00,23.0,15.0,30.32,East,81,1.0,6.0,71,0.00,,,0.00,,2013-02-21 19:32:00,
2013-02-21 14:42:00,23.0,15.0,30.32,East,81,1.0,6.0,71,0.00,,,0.00,,2013-02-21 19:42:00,
2013-02-21 14:52:00,22.0,15.0,30.30,East,86,3.0,4.0,73,0.00,,,0.00,,2013-02-21 19:52:00,
2013-02-21 15:01:00,24.0,16.0,30.30,North,4,1.0,5.0,70,0.00,,,0.00,,2013-02-21 20:01:00,
2013-02-21 15:11:00,23.0,15.0,30.31,East,85,1.0,2.0,70,0.00,,,0.00,,2013-02-21 20:11:00,
2013-02-21 15:21:00,23.0,15.0,30.31,East,85,1.0,2.0,70,0.00,,,0.00,,2013-02-21 20:21:00,
2013-02-21 15:32:00,24.0,15.0,30.29,ENE,68,2.0,5.0,69,0.00,,,0.00,,2013-02-21 20:32:00,
2013-02-21 15:42:00,24.0,15.0,30.29,ENE,68,2.0,5.0,69,0.00,,,0.00,,2013-02-21 20:42:00,
2013-02-21 15:52:00,25.0,16.0,30.28,NNE,30,3.0,5.0,67,0.00,,,0.00,,2013-02-21 20:52:00,
2013-02-21 16:02:00,25.0,16.0,30.26,ENE,68,3.0,7.0,68,0.00,,,0.00,,2013-02-21 21:02:00,
2013-02-21 16:12:00,25.0,16.0,30.25,NE,41,1.0,6.0,67,0.00,,,0.00,,2013-02-21 21:12:00,
2013-02-21 16:22:00,25.0,16.0,30.25,NE,41,1.0,6.0,67,0.00,,,0.00,,2013-02-21 21:22:00,
2013-02-21 16:32:00,25.0,16.0,30.25,East,86,4.0,8.0,67,0.00,,,0.00,,2013-02-21 21:32:00,
2013-02-21 16:42:00,25.0,16.0,30.28,East,97,2.0,6.0,67,0.00,,,0.00,,2013-02-21 21:42:00,
2013-02-21 16:52:00,25.0,16.0,30.28,East,97,2.0,6.0,67,0.00,,,0.00,,2013-02-21 21:52:00,
2013-02-21 17:01:00,25.0,15.0,30.29,ESE,118,2.0,5.0,66,0.00,,,0.00,,2013-02-21 22:01:00,
2013-02-21 17:11:00,25.0,15.0,30.29,ESE,118,2.0,5.0,66,0.00,,,0.00,,2013-02-21 22:11:00,
2013-02-21 17:21:00,25.0,16.0,30.31,ESE,107,1.0,3.0,67,0.00,,,0.00,,2013-02-21 22:21:00,
2013-02-21 17:32:00,24.0,14.0,30.32,ENE,72,3.0,5.0,66,0.00,,,0.00,,2013-02-21 22:32:00,
2013-02-21 17:42:00,24.0,14.0,30.32,ENE,72,3.0,5.0,66,0.00,,,0.00,,2013-02-21 22:42:00,
2013-02-21 17:52:00,24.0,15.0,30.32,ESE,105,0.0,4.0,68,0.00,,,0.00,,2013-02-21 22:52:00,
2013-02-21 18:01:00,24.0,15.0,30.32,East,96,2.0,5.0,68,0.00,,,0.00,,2013-02-21 23:01:00,
2013-02-21 18:11:00,24.0,15.0,30.32,East,96,2.0,5.0,68,0.00,,,0.00,,2013-02-21 23:11:00,
2013-02-21 18:21:00,24.0,15.0,30.32,ENE,68,2.0,6.0,68,0.00,,,0.00,,2013-02-21 23:21:00,
2013-02-21 18:32:00,23.0,14.0,30.30,East,94,2.0,8.0,68,0.00,,,0.00,,2013-02-21 23:32:00,
2013-02-21 18:42:00,23.0,14.0,30.30,East,94,2.0,8.0,68,0.00,,,0.00,,2013-02-21 23:42:00,
2013-02-21 18:52:00,23.0,14.0,30.30,East,80,3.0,8.0,69,0.00,,,0.00,,2013-02-21 23:52:00,
2013-02-21 19:02:00,22.0,14.0,30.31,ENE,64,3.0,6.0,70,0.00,,,0.00,,2013-02-22 00:02:00,
2013-02-21 19:11:00,22.0,14.0,30.31,ENE,64,3.0,6.0,70,0.00,,,0.00,,2013-02-22 00:11:00,
2013-02-21 19:22:00,22.0,14.0,30.31,East,87,1.0,5.0,71,0.00,,,0.00,,2013-02-22 00:22:00,
2013-02-21 19:32:00,22.0,14.0,30.31,SE,128,4.0,5.0,71,0.00,,,0.00,,2013-02-22 00:32:00,
2013-02-21 19:42:00,22.0,14.0,30.31,SE,128,4.0,5.0,71,0.00,,,0.00,,2013-02-22 00:42:00,
2013-02-21 19:52:00,22.0,14.0,30.30,East,89,2.0,4.0,72,0.00,,,0.00,,2013-02-22 00:52:00,
2013-02-21 20:01:00,22.0,14.0,30.30,East,89,2.0,4.0,72,0.00,,,0.00,,2013-02-22 01:01:00,
2013-02-21 20:11:00,22.0,14.0,30.30,East,89,2.0,4.0,72,0.00,,,0.00,,2013-02-22 01:11:00,
2013-02-21 20:22:00,21.0,14.0,30.29,East,96,1.0,6.0,74,0.00,,,0.00,,2013-02-22 01:22:00,
2013-02-21 20:32:00,21.0,14.0,30.29,ENE,66,4.0,9.0,75,0.00,,,0.00,,2013-02-22 01:32:00,
2013-02-21 20:42:00,21.0,14.0,30.29,ENE,66,4.0,9.0,75,0.00,,,0.00,,2013-02-22 01:42:00,
2013-02-21 20:51:00,20.0,14.0,30.28,ENE,58,4.0,7.0,76,0.00,,,0.00,,2013-02-22 01:51:00,
2013-02-21 21:02:00,20.0,14.0,30.28,ESE,108,3.0,8.0,77,0.00,,,0.00,,2013-02-22 02:02:00,
2013-02-21 21:11:00,20.0,14.0,30.28,ESE,108,3.0,8.0,77,0.00,,,0.00,,2013-02-22 02:11:00,
2013-02-21 21:21:00,20.0,14.0,30.27,East,92,5.0,10.0,78,0.00,,,0.00,,2013-02-22 02:21:00,
2013-02-21 21:32:00,19.0,14.0,30.27,East,90,2.0,5.0,79,0.00,,,0.00,,2013-02-22 02:32:00,
2013-02-21 21:42:00,19.0,14.0,30.27,East,90,2.0,5.0,79,0.00,,,0.00,,2013-02-22 02:42:00,
2013-02-21 21:52:00,19.0,14.0,30.28,East,81,3.0,5.0,79,0.00,,,0.00,,2013-02-22 02:52:00,
2013-02-21 22:02:00,19.0,14.0,30.27,ENE,75,3.0,8.0,80,0.00,,,0.00,,2013-02-22 03:02:00,
2013-02-21 22:11:00,19.0,14.0,30.27,ENE,75,3.0,8.0,80,0.00,,,0.00,,2013-02-22 03:11:00,
2013-02-21 22:21:00,19.0,14.0,30.27,ENE,75,3.0,8.0,80,0.00,,,0.00,,2013-02-22 03:21:00,
2013-02-21 22:32:00,20.0,15.0,30.28,East,79,4.0,8.0,80,0.00,,,0.00,,2013-02-22 03:32:00,
2013-02-21 22:42:00,20.0,15.0,30.28,East,79,4.0,8.0,80,0.00,,,0.00,,2013-02-22 03:42:00,
2013-02-21 22:52:00,20.0,15.0,30.27,ENE,71,3.0,6.0,81,0.00,,,0.00,,2013-02-22 03:52:00,
2013-02-21 23:02:00,20.0,15.0,30.26,East,80,3.0,6.0,82,0.00,,,0.00,,2013-02-22 04:02:00,
2013-02-21 23:11:00,20.0,15.0,30.26,East,80,3.0,6.0,82,0.00,,,0.00,,2013-02-22 04:11:00,
2013-02-21 23:21:00,20.0,15.0,30.26,East,86,1.0,11.0,82,0.00,,,0.00,,2013-02-22 04:21:00,
2013-02-21 23:32:00,20.0,16.0,30.25,ENE,68,5.0,8.0,83,0.00,,,0.00,,2013-02-22 04:32:00,
2013-02-21 23:42:00,20.0,16.0,30.25,ENE,68,5.0,8.0,83,0.00,,,0.00,,2013-02-22 04:42:00,
2013-02-21 23:51:00,20.0,16.0,30.26,East,85,4.0,6.0,83,0.00,,,0.00,,2013-02-22 04:51:00,